Regional Weather Roundup
Issued by NWS Green Bay, WI

Home | Current Version | Previous Version | Graphics & Text | Print | Product List | Glossary Off
Versions: 1 2 3 4 5 6 7 8 9 10 11 12 13 14 15 16 17 18 19 20 21 22 23 24 25 26 27 28 29 30 31 32 33 34 35 36 37 38 39 40 41 42 43 44 45 46 47 48 49 50

000
ASUS43 KGRB 271459
RWRGRB

NORTH-CENTRAL AND NORTHEAST WISCONSIN REGIONAL WEATHER ROUNDUP
NATIONAL WEATHER SERVICE GREEN BAY WI
1000 AM CDT WED AUG 27 2014

WIZ005-009-010>012-018-019-271600-
NORTH CENTRAL WISCONSIN

CITY           SKY/WX    TMP DP  RH WIND       PRES   REMARKS
IRONWOOD       NOT AVBL
MANITOWISH WTR NOT AVBL
ARBOR VITAE    NOT AVBL
EAGLE RIVER    NOT AVBL
LAND O LAKES   NOT AVBL
RHINELANDER    CLOUDY    60  50  69 CALM      30.23R
PHILLIPS       NOT AVBL
ANTIGO         NOT AVBL
TOMAHAWK       NOT AVBL
MERRILL        NOT AVBL
$$

WIZ013-073-271600-
NORTHEAST WISCONSIN

CITY           SKY/WX    TMP DP  RH WIND       PRES   REMARKS
IRON MOUNTAIN  PTSUNNY   62  51  67 N6        30.19S
MARINETTE      MOSUNNY   63  52  67 N5        30.19S
$$

WIZ017-030-035>037-045-271600-
CENTRAL WISCONSIN

CITY           SKY/WX    TMP DP  RH WIND       PRES   REMARKS
MEDFORD        NOT AVBL
WAUSAU         SUNNY     64  53  67 MISG      30.19F
MOSINEE        MOSUNNY   64  55  72 CALM      30.22F
MARSHFIELD     MOSUNNY   68  54  60 NW5       30.21S
WISC RAPIDS    SUNNY     68  54  60 VRB3      30.22R
STEVENS POINT  NOT AVBL
WAUPACA        NOT AVBL
SHAWANO        MOSUNNY   68  54  61 CALM      30.21R
CLINTONVILLE   NOT AVBL
$$

WIZ038-039-048-051-271600-
FOX VALLEY

CITY           SKY/WX    TMP DP  RH WIND       PRES   REMARKS
NWS GREEN BAY  MOSUNNY   67  55  65 CALM      30.19S
APPLETON       MOSUNNY   66  50  55 CALM      30.21R
OSHKOSH        MOSUNNY   68  59  73 NE7       30.20R
FOND DU LAC    MOSUNNY   69  59  70 NE5       30.20S
$$

WIZ022-050-052-271600-
EAST CENTRAL WISCONSIN

CITY           SKY/WX    TMP DP  RH WIND       PRES   REMARKS
STURGEON BAY   PTSUNNY   64  52  63 S3        30.21R
MANITOWOC      NOT AVBL
SHEBOYGAN      MOSUNNY   68  58  70 E8        30.20R
$$

LMZ563-521-522-541>543-271600-
LAKESHORE

STATION/POSITION TIME  TEMP    WIND        PRES    VSBY  WAVE
                       AIR SEA DIR/SP/G                  HT/PER
                 (UTC) (F)     (DEG/KT/KT) (MB)    (MI)  (FT/S)
SHEBOYGAN LKSHOR 1400   65 66   60/  7/  9 1022.0R
KEWAUNEE LKSHORE 1400   66     100/  3/  4 1021.4R
ALGOMA MARINA    1400             CALM       N/A
NORTHPORT PIER   1400   62     340/  6/  6 1022.0R
N MID LAKE BUOY  1400   61 65  340/  8/ 10 1021.8R         1
S GREEN BAY BUOY 1400   63     VRB  2      1023.4R
SISTER BAY LKSHO 1400   67     350/  6/  7   N/A
CHAMBERS ISLAND  1400   64     330/  4/  5 1022.0S
MENOMINEE LKSHOR 1400   62     350/  3/  4 1022.9R
$$



USA.gov is the U.S. government's official web portal to all federal, state and local government web resources and services.